Tracking 30922 objects as of 2-Jul-2025
HD Live streaming from Space Station
objects crossing your sky now

PALAPA B1

Track PALAPA B1 now!
PALAPA B1 is classified as:


NORAD ID: 14134
Int'l Code: 1983-059C
Perigee: 35,797.3 km
Apogee: 35,828.2 km
Inclination: 12.0 °
Period: 1,437.1 minutes
Semi major axis: 42183 km
RCS: 1.2604 m2 (large)
Launch date: June 18, 1983
Source: Indonesia (INDO)
Launch site: AIR FORCE EASTERN TEST RANGE (AFETR)
Your satellite tracking list
STARLINK-31564
Track 1 satellite(s)




NASA's NSSDC Master Catalog

Two Line Element Set (TLE):
1 14134U 83059C   25182.55040160 -.00000297  00000-0  00000-0 0  9996
2 14134  12.0322 331.8599 0003663 130.7603 156.8935  1.00204131117278
Source of the keplerian elements: AFSPC